Hourly Data Report for October 16, 2015

All times are specified in Local Standard Time (LST). Add 1 hour to adjust for Daylight Saving Time where and when it is observed.

RANKIN INLET A
NUNAVUT

62°48'38.000" N
92°06'53.000" W
32.30 m
2303405
71083
YRT

Download Data

Hourly Data (October 2015)
Hourly Data Report for October 16, 2015
Temp Definition
°C
Dew Point Temp Definition
°C
Rel Hum Definition
%
Wind Dir Definition
10's deg

Wind Spd Definition
km/h
Visibility Definition
km
Stn Press Definition
kPa
Hmdx Definition


Wind Chill Definition


Weather Definition


TIME
00:00 Legend Double Dagger -11.9 -13.9 85 30 16 24.1 101.54   -19 Snow
01:00 Legend Double Dagger -10.2 -12.4 84 30 24 24.1 101.52   -19 Snow
02:00 Legend Double Dagger -8.9 -12.6 75 29 32 24.1 101.54   -18 Snow
03:00 Legend Double Dagger -8.8 -11.3 82 30 23 24.1 101.55   -17 Snow
04:00 Legend Double Dagger -8.1 -10.8 81 31 22 16.1 101.56   -16 Snow
05:00 Legend Double Dagger -7.8 -11.2 77 30 26 24.1 101.57   -16 Snow
06:00 Legend Double Dagger -7.6 -11.0 77 30 26 24.1 101.59   -16 Snow
07:00 Legend Double Dagger -7.3 -10.2 80 30 30 24.1 101.58   -16 Snow
08:00
09:00 Legend Double Dagger -6.0 -8.6 82 32 28 24.1 101.59   -14 Snow
10:00 Legend Double Dagger -5.6 -8.2 82 32 32 24.1 101.60   -14 Snow
11:00 Legend Double Dagger -5.5 -8.8 78 33 37 24.1 101.62   -14 Snow
12:00 Legend Double Dagger -5.5 -8.6 79 32 35 24.1 101.63   -14 Snow
13:00 Legend Double Dagger -5.5 -8.8 78 33 33 24.1 101.66   -14 Snow
14:00 Legend Double Dagger -5.4 -8.7 78 32 27 24.1 101.68   -13 Snow
15:00 Legend Double Dagger -5.6 -8.9 78 31 23 24.1 101.70   -13 Snow
16:00 Legend Double Dagger -5.2 -7.7 83 33 27 24.1 101.70   -13 Snow
17:00 Legend Double Dagger -5.2 -7.7 83 33 31 24.1 101.72   -13 Snow
18:00 Legend Double Dagger -5.3 -7.6 84 32 26 24.1 101.72   -13 Snow
19:00 Legend Double Dagger -5.3 -7.8 83 32 25 24.1 101.71   -13 Snow
20:00 Legend Double Dagger -5.3 -7.4 85 32 21 24.1 101.67   -12 Snow
21:00 Legend Double Dagger -5.4 -8.2 81 32 26 24.1 101.67   -13 Snow
22:00 Legend Double Dagger -6.1 -8.4 84 31 21 24.1 101.67   -13 Snow
23:00 Legend Double Dagger -6.3 -8.9 82 29 24 24.1 101.64   -14 LegendNANA

Notes on Data Quality.

Legend

  • E = Estimated
  • M = Missing
  • NA = Not Available
  • ‡ = Partner data that is not subject to review by the National Climate Archives
Date modified: